When you browse on this site, cookies collect data to enhance your experience and personalize the content and advertising you see.
Visit our Privacy Policy to learn more. By continuing to use the site, you agree to this use of cookies and data.
  • Em Portugal
  • Lista de países
  • Para 7 dias
  • Temperatura da água
  • Mapas de satélite
  • Mapa do tempo
  • Widgets de tempo
  • user-avatar
    Iniciar Sessão

    Previsão horária em Badze

    Hoje, 17 Dezembro, Segunda-feira

    Tempo Temperatura Precipitação Vento Pressão Humidade
    00:00 -5°C° 0 mm 3 m/s 754 mmHg 88%
    01:00 -4°C° 0 mm 2 m/s 754 mmHg 90%
    02:00 -4°C° 0 mm 2 m/s 754 mmHg 89%
    03:00 -4°C° 0 mm 2 m/s 754 mmHg 89%
    04:00 -4°C° 0 mm 2 m/s 754 mmHg 89%
    05:00 -4°C° 0 mm 2 m/s 754 mmHg 88%
    06:00 -4°C° 0 mm 2 m/s 754 mmHg 87%
    07:00 -4°C° 0 mm 2 m/s 754 mmHg 87%
    08:00 -4°C° 0 mm 2 m/s 754 mmHg 85%
    09:00 -4°C° 0 mm 2 m/s 755 mmHg 82%
    10:00 -3°C° 0 mm 2 m/s 755 mmHg 80%
    11:00 -3°C° 0 mm 2 m/s 755 mmHg 79%
    12:00 -3°C° 0 mm 2 m/s 755 mmHg 78%
    13:00 0°C° 0 mm 1 m/s 755 mmHg 77%
    14:00 -1°C° 0 mm 1 m/s 756 mmHg 79%
    15:00 -1°C° 0 mm 1 m/s 756 mmHg 82%
    16:00 -1°C° 0 mm 1 m/s 756 mmHg 85%
    17:00 -2°C° 0 mm 1 m/s 756 mmHg 86%
    18:00 -2°C° 0 mm 1 m/s 757 mmHg 87%
    19:00 -2°C° 0 mm 1 m/s 757 mmHg 88%
    20:00 -2°C° 0 mm 1 m/s 757 mmHg 88%
    21:00 -2°C° 0 mm 1 m/s 758 mmHg 89%
    22:00 -2°C° 0 mm 1 m/s 758 mmHg 89%
    23:00 -3°C° 0 mm 1 m/s 758 mmHg 90%

    Amanhã, 18 Dezembro, Terça-feira

    Tempo Temperatura Precipitação Vento Pressão Humidade
    00:00 -3°C° 0 mm 1 m/s 758 mmHg 90%
    01:00 -3°C° 0 mm 1 m/s 759 mmHg 90%
    02:00 -3°C° 0 mm 1 m/s 759 mmHg 90%
    03:00 -3°C° 0 mm 1 m/s 759 mmHg 90%
    04:00 -3°C° 0 mm 1 m/s 759 mmHg 90%
    05:00 -3°C° 0 mm 1 m/s 759 mmHg 89%
    06:00 -3°C° 0 mm 1 m/s 759 mmHg 89%
    07:00 -5°C° 0 mm 2 m/s 759 mmHg 89%
    08:00 -5°C° 0 mm 2 m/s 759 mmHg 87%
    09:00 -4°C° 0 mm 2 m/s 760 mmHg 86%
    10:00 -4°C° 0 mm 2 m/s 760 mmHg 84%
    11:00 -4°C° 0 mm 2 m/s 760 mmHg 83%
    12:00 -3°C° 0 mm 2 m/s 759 mmHg 82%
    13:00 -3°C° 0 mm 2 m/s 759 mmHg 81%
    14:00 -3°C° 0 mm 2 m/s 759 mmHg 83%
    15:00 -3°C° 0 mm 2 m/s 759 mmHg 86%
    16:00 -4°C° 0 mm 2 m/s 759 mmHg 89%
    17:00 -3°C° 0 mm 2 m/s 759 mmHg 90%
    18:00 -4°C° 0 mm 3 m/s 759 mmHg 90%
    19:00 -4°C° 0 mm 3 m/s 759 mmHg 91%
    20:00 -4°C° 0 mm 3 m/s 759 mmHg 92%
    21:00 -4°C° 0 mm 3 m/s 759 mmHg 92%
    22:00 -4°C° 0 mm 3 m/s 759 mmHg 93%
    23:00 -4°C° 0 mm 3 m/s 759 mmHg 93%

    Depois de amanhã, 19 Dezembro, Quarta-feira

    Tempo Temperatura Precipitação Vento Pressão Humidade
    00:00 -4°C° 0 mm 3 m/s 759 mmHg 93%
    01:00 -2°C° 0 mm 3 m/s 759 mmHg 93%
    02:00 -2°C° 0 mm 3 m/s 759 mmHg 93%
    03:00 -2°C° 0 mm 3 m/s 759 mmHg 93%
    04:00 -2°C° 0 mm 3 m/s 759 mmHg 93%
    05:00 -4°C° 0 mm 3 m/s 759 mmHg 93%
    06:00 -4°C° 0 mm 4 m/s 759 mmHg 93%
    07:00 -4°C° 0 mm 4 m/s 759 mmHg 92%
    08:00 -4°C° 0 mm 4 m/s 759 mmHg 90%
    09:00 -4°C° 0 mm 4 m/s 759 mmHg 87%
    10:00 -5°C° 0 mm 5 m/s 759 mmHg 85%
    11:00 -5°C° 0 mm 5 m/s 759 mmHg 82%
    12:00 -5°C° 0 mm 5 m/s 759 mmHg 80%
    13:00 -4°C° 0 mm 5 m/s 758 mmHg 78%
    14:00 -5°C° 0 mm 5 m/s 758 mmHg 81%
    15:00 -5°C° 0 mm 5 m/s 758 mmHg 84%
    16:00 -6°C° 0 mm 5 m/s 757 mmHg 87%
    17:00 -6°C° 0 mm 6 m/s 757 mmHg 86%
    18:00 -6°C° 0 mm 6 m/s 757 mmHg 86%
    19:00 -6°C° 0 mm 6 m/s 757 mmHg 86%
    20:00 -6°C° 0 mm 6 m/s 757 mmHg 86%
    21:00 -6°C° 0 mm 6 m/s 757 mmHg 86%
    22:00 -6°C° 0 mm 6 m/s 757 mmHg 85%
    23:00 -8°C° 0 mm 6 m/s 757 mmHg 86%

    20 Dezembro, Quinta-feira

    Tempo Temperatura Precipitação Vento Pressão Humidade
    00:00 -8°C° 0 mm 6 m/s 756 mmHg 86%
    01:00 -8°C° 0 mm 6 m/s 756 mmHg 86%
    02:00 -8°C° 0 mm 6 m/s 756 mmHg 86%
    03:00 -8°C° 0 mm 6 m/s 756 mmHg 86%
    04:00 -8°C° 0 mm 6 m/s 756 mmHg 86%
    05:00 -8°C° 0 mm 6 m/s 756 mmHg 86%
    06:00 -8°C° 0 mm 6 m/s 756 mmHg 85%
    07:00 -8°C° 0 mm 6 m/s 756 mmHg 85%
    08:00 -8°C° 0 mm 6 m/s 756 mmHg 84%
    09:00 -6°C° 0 mm 6 m/s 756 mmHg 84%
    10:00 -6°C° 0 mm 5 m/s 756 mmHg 83%
    11:00 -6°C° 0 mm 5 m/s 756 mmHg 82%
    12:00 -6°C° 0 mm 5 m/s 755 mmHg 82%
    13:00 -6°C° 0 mm 5 m/s 755 mmHg 81%
    14:00 -6°C° 0 mm 5 m/s 755 mmHg 82%
    15:00 -7°C° 0 mm 5 m/s 755 mmHg 82%
    16:00 -7°C° 0 mm 4 m/s 755 mmHg 83%
    17:00 -7°C° 0 mm 4 m/s 755 mmHg 83%
    18:00 -7°C° 0 mm 4 m/s 755 mmHg 83%
    19:00 -7°C° 0 mm 4 m/s 755 mmHg 83%
    20:00 -7°C° 0 mm 4 m/s 755 mmHg 84%
    21:00 -7°C° 0 mm 4 m/s 755 mmHg 84%
    22:00 -7°C° 0 mm 4 m/s 755 mmHg 85%
    23:00 -7°C° 0 mm 4 m/s 755 mmHg 85%

    21 Dezembro, Sexta-feira

    Tempo Temperatura Precipitação Vento Pressão Humidade
    00:00 -6°C° 0 mm 3 m/s 755 mmHg 86%
    01:00 -6°C° 0 mm 3 m/s 755 mmHg 86%
    02:00 -6°C° 0 mm 3 m/s 754 mmHg 87%
    03:00 -6°C° 0 mm 3 m/s 754 mmHg 87%
    04:00 -6°C° 0 mm 3 m/s 754 mmHg 87%
    05:00 -6°C° 0 mm 3 m/s 754 mmHg 87%
    06:00 -6°C° 0 mm 3 m/s 754 mmHg 87%
    07:00 -6°C° 0 mm 3 m/s 754 mmHg 88%
    08:00 -6°C° 0.1 mm 3 m/s 754 mmHg 87%
    09:00 -6°C° 0.1 mm 3 m/s 754 mmHg 87%
    10:00 -6°C° 0.1 mm 3 m/s 754 mmHg 87%
    11:00 -5°C° 0.1 mm 3 m/s 754 mmHg 86%
    12:00 -4°C° 0.1 mm 2 m/s 754 mmHg 86%
    13:00 -4°C° 0.1 mm 2 m/s 754 mmHg 86%
    14:00 -4°C° 0.1 mm 2 m/s 754 mmHg 87%
    15:00 -4°C° 0.1 mm 2 m/s 754 mmHg 89%
    16:00 -4°C° 0.1 mm 2 m/s 754 mmHg 90%
    17:00 -4°C° 0.1 mm 2 m/s 754 mmHg 91%
    18:00 -4°C° 0.1 mm 2 m/s 754 mmHg 91%
    19:00 -4°C° 0.1 mm 2 m/s 754 mmHg 92%
    20:00 -4°C° 0.1 mm 2 m/s 754 mmHg 92%
    21:00 -4°C° 0.1 mm 2 m/s 754 mmHg 92%
    22:00 -4°C° 0.1 mm 2 m/s 754 mmHg 92%
    23:00 -4°C° 0 mm 2 m/s 754 mmHg 92%

    22 Dezembro, Sábado

    Tempo Temperatura Precipitação Vento Pressão Humidade
    00:00 -4°C° 0 mm 2 m/s 753 mmHg 92%
    01:00 -4°C° 0 mm 2 m/s 753 mmHg 92%
    02:00 -4°C° 0 mm 2 m/s 753 mmHg 92%
    03:00 -4°C° 0 mm 2 m/s 753 mmHg 93%
    04:00 -4°C° 0 mm 2 m/s 753 mmHg 93%
    05:00 -4°C° 0 mm 2 m/s 753 mmHg 93%
    06:00 -4°C° 0 mm 2 m/s 753 mmHg 93%
    07:00 -4°C° 0 mm 2 m/s 753 mmHg 92%
    08:00 -4°C° 0 mm 3 m/s 753 mmHg 91%
    09:00 -4°C° 0 mm 3 m/s 754 mmHg 90%
    10:00 -4°C° 0 mm 3 m/s 754 mmHg 89%
    11:00 -2°C° 0 mm 3 m/s 754 mmHg 88%
    12:00 -2°C° 0 mm 3 m/s 754 mmHg 87%
    13:00 -2°C° 0 mm 3 m/s 754 mmHg 86%
    14:00 -2°C° 0 mm 3 m/s 755 mmHg 87%
    15:00 -2°C° 0 mm 3 m/s 755 mmHg 89%
    16:00 -4°C° 0 mm 3 m/s 755 mmHg 91%
    17:00 -4°C° 0 mm 3 m/s 755 mmHg 91%
    18:00 -4°C° 0 mm 3 m/s 755 mmHg 92%
    19:00 -4°C° 0 mm 3 m/s 756 mmHg 92%
    20:00 -3°C° 0 mm 2 m/s 756 mmHg 93%
    21:00 -2°C° 0 mm 2 m/s 756 mmHg 94%
    22:00 -2°C° 0 mm 2 m/s 757 mmHg 94%
    23:00 0°C° 0 mm 1 m/s 757 mmHg 94%
    Mostrar mais